Location: Bovenhusen
(53.2252°N, 7.3203°E)
Time: 08:03:27
(UTC+00:00)

Daily predictions for brighter satellites

Satellite Brightness Start Highest point End
(mag) Time Altitude Azimuth Time Altitude Azimuth Time Altitude Azimuth
Meteor 1-19 Rocket 4.3 20:16:19 10° S 20:21:54 72° E 20:27:42 10° NNE
USA 215 3.6 20:17:02 10° E 20:23:34 73° NNE 20:30:06 10° WNW
STARLINK-1254 4.5 20:20:49 10° SSW 20:24:23 28° SE 20:27:58 10° E
STARLINK-1098 3.6 20:20:18 10° W 20:24:27 89° S 20:28:37 10° E
STARLINK-1089 4.5 20:20:46 10° W 20:24:37 38° SSW 20:28:28 10° SE
Cosmos 1844 Rocket 3.2 20:20:46 10° SW 20:26:25 66° NW 20:32:05 10° NNE
STARLINK-1109 3.6 20:22:57 10° W 20:27:06 74° SSW 20:31:14 10° ESE
SPOT 5 3.5 20:22:26 10° SE 20:27:24 51° ENE 20:32:34 10° N
USA 229 DEB 3.7 20:20:52 10° SW 20:27:27 79° SE 20:34:26 10° NE
USA 229 3.7 20:21:00 10° SW 20:27:33 79° SE 20:34:32 10° NE
STARLINK-1231 4.4 20:25:44 10° SSW 20:29:22 30° SE 20:33:01 10° E
STARLINK-1123 3.6 20:25:16 10° W 20:29:26 89° S 20:33:35 10° E
Cosmos 1437 Rocket 4.3 20:28:03 10° SE 20:30:50 20° E 20:33:39 10° NE
SL-4 R/B 1.6 20:28:31 10° NW 20:31:47 62° NE 20:34:49 10° SE
STARLINK-1091 3.6 20:27:56 10° W 20:32:05 72° SSW 20:36:13 10° ESE
Meteor 1-18 Rocket 4.4 20:27:29 10° SSW 20:33:04 84° WNW 20:38:47 10° NNE
STARLINK-1232 4.3 20:30:36 10° SSW 20:34:18 32° SSE 20:38:00 10° E
STARLINK-1097 3.6 20:30:13 10° W 20:34:23 89° S 20:38:33 10° E
NOSS 3-1 (C) 3.5 20:29:13 10° SW 20:34:53 89° SE 20:41:38 10° NE
ATLAS 3B R/B 4.3 20:29:56 10° WNW 20:35:56 34° N 20:42:03 10° ENE
Cosmos 1515 3.8 20:32:21 10° SSW 20:36:10 84° W 20:40:00 10° N
NOSS 3-1 (A) 3.4 20:30:57 10° SSW 20:36:31 66° SE 20:43:05 10° NE
Meteor 1-12 Rocket 4.3 20:31:20 10° NNW 20:37:02 79° ENE 20:42:42 10° SSE
STARLINK-1072 3.7 20:32:56 10° W 20:37:04 69° SSW 20:41:11 10° ESE
SPOT 1/Viking Rocket 3.6 20:32:17 10° SSE 20:37:28 86° ENE 20:42:40 10° NNW
Iridium 51 4.4 20:33:35 10° S 20:37:37 76° W 20:41:21 10° N
CENTAUR R/B 4.1 20:32:12 10° NW 20:39:10 44° NNE 20:47:06 10° E
STARLINK-1208 4.2 20:35:30 10° SSW 20:39:14 34° SSE 20:43:00 10° E
STARLINK-1099 3.6 20:35:12 10° W 20:39:22 89° S 20:43:32 10° E
Tsikada Rocket 4.3 20:33:18 10° SSW 20:39:29 72° WNW 20:45:40 10° N
Intercosmos 24 3.7 20:35:46 10° N 20:39:45 74° ENE 20:43:17 10° SSE
Landsat 7 4.0 20:36:37 10° S 20:41:23 77° WSW 20:46:11 10° NNW
STARLINK-1096 3.7 20:37:56 10° W 20:42:03 67° SSW 20:46:10 10° ESE
Cosmos 1624 Rocket 4.0 20:37:59 10° SSW 20:43:19 80° ESE 20:48:41 10° NNE
Cosmos 1741 Rocket 4.3 20:39:00 10° NNW 20:44:11 59° ENE 20:49:21 10° SE
STARLINK-1271 4.2 20:40:24 10° SW 20:44:11 36° SSE 20:48:00 10° E
STARLINK-1104 3.6 20:40:11 10° W 20:44:20 89° SSW 20:48:31 10° E
Cosmos 1140 Rocket 4.4 20:39:48 10° NW 20:44:44 45° WSW 20:49:41 10° S
Meteor 1-4 Rocket 2.5 20:41:42 10° SSW 20:45:08 85° W 20:48:38 10° NNE
STARLINK-1079 3.7 20:42:54 10° W 20:47:01 65° SSW 20:51:07 10° ESE
NOSS 2-3 (C) 3.8 20:42:54 10° SSW 20:47:15 65° SE 20:52:34 10° NE
ERBS 3.7 20:46:09 10° S 20:48:32 19° SE 20:50:57 10° E
COSMOS 2406 4.0 20:43:05 10° NW 20:48:38 49° WSW 20:54:08 10° S
STARLINK-1154 4.1 20:45:20 10° SW 20:49:10 38° SSE 20:53:01 10° E
STARLINK-1144 3.6 20:45:10 10° W 20:49:20 89° S 20:53:30 10° E
CARTOSAT-1 3.6 20:45:11 10° SSE 20:49:29 76° ENE 20:53:50 10° NNW
STARLINK-1116 3.7 20:47:52 10° W 20:51:59 62° SSW 20:56:05 10° ESE
ATLAS CENTAUR R/B 1.5 20:51:30 10° W 20:53:36 42° NNW 20:55:21 10° NE
STARLINK-1197 4.0 20:50:14 10° SW 20:54:06 40° SSE 20:58:00 10° E
Crew Dragon 0.8 20:52:17 10° W 20:54:15 33° SSW 20:55:49 14° SE
STARLINK-1103 3.6 20:50:09 10° W 20:54:18 88° S 20:58:28 10° E
Meteor 2-4 Rocket 3.6 20:50:12 10° S 20:55:35 83° E 21:00:58 10° NNE
IGS 5A 4.1 20:51:58 10° S 20:56:03 54° W 21:00:09 10° NNW
Meteor 1-13 Rocket 4.4 20:51:57 10° S 20:57:26 61° E 21:03:04 10° NNE
Cosmos 1371 Rocket 4.3 20:52:19 10° SSW 20:57:34 75° WNW 21:02:49 10° NNE
Cosmos 1850 Rocket 4.1 20:52:19 10° NNW 20:57:41 76° ENE 21:02:45 12° SSE
STARLINK-1198 4.0 20:55:08 10° SW 20:59:03 42° SSE 21:02:58 10° E
STARLINK-1101 3.6 20:55:07 10° W 20:59:17 87° S 21:03:27 10° E
Cosmos 2084 Rocket 4.1 20:55:54 10° WSW 21:00:10 61° NW 21:04:33 10° NE
Okean 3 3.5 20:56:55 10° S 21:01:14 88° W 21:05:35 10° N
SL-8 R/B 4.0 20:56:50 10° WSW 21:01:27 48° S 21:06:05 10° ESE
STARLINK-1094 3.8 20:57:51 10° W 21:01:56 57° SSW 21:05:52 11° ESE
SeaSat 1 3.9 20:58:33 10° ENE 21:02:04 19° ESE 21:05:00 12° SE
STARLINK-1199 3.9 21:00:04 10° SW 21:04:01 44° SSE 21:07:58 10° E
STARLINK-1102 3.6 21:00:07 10° W 21:04:16 87° S 21:08:26 10° E
ERS-1 Rocket 3.1 21:00:37 10° S 21:05:38 75° WSW 21:10:43 10° NNW
Cosmos 1300 Rocket 3.9 21:01:13 10° NNW 21:05:39 66° W 21:10:03 10° S
SAR-Lupe-2 4.0 21:02:11 10° N 21:05:46 67° WNW 21:09:21 10° SSW
STARLINK-1117 3.8 21:02:49 10° W 21:06:53 55° SSW 21:10:39 12° SE
NOSS 3-2 (A) 4.4 21:01:42 10° NW 21:08:41 59° NNE 21:16:42 10° ESE
STARLINK-1210 3.8 21:05:02 10° SW 21:08:59 46° SSE 21:12:58 10° E
STARLINK-1111 3.6 21:05:06 10° W 21:09:16 86° S 21:13:25 10° E
STARLINK-1078 3.9 21:07:48 10° W 21:11:51 52° SSW 21:15:25 13° SE
ISS -3.1 21:09:29 10° W 21:12:39 39° SSW 21:15:06 15° SE
STARLINK-1219 3.8 21:09:56 10° SW 21:13:55 49° SSE 21:17:56 10° E
STARLINK-1073 3.6 21:10:05 10° W 21:14:15 84° S 21:18:24 10° E
USA 238 DEB 4.3 21:09:42 10° NW 21:16:44 61° NNE 21:24:03 10° ESE
STARLINK-1108 3.9 21:12:47 10° W 21:16:49 50° SSW 21:20:12 14° SE
USA 238 4.3 21:09:48 10° NW 21:16:50 61° NNE 21:24:09 10° ESE
STARLINK-1211 3.7 21:14:51 10° SW 21:18:53 51° SSE 21:22:55 10° E
STARLINK-1121 3.6 21:15:02 10° W 21:19:12 83° S 21:23:21 10° ESE
STARLINK-1071 4.0 21:17:46 10° W 21:21:47 47° SSW 21:24:59 15° SE
Cosmos 2221 Rocket 4.1 21:18:00 10° SSW 21:22:28 62° WNW 21:27:00 10° N
STARLINK-1245 3.7 21:19:49 10° SW 21:23:52 53° SSE 21:27:55 10° E
STARLINK-1106 3.6 21:20:02 10° W 21:24:11 82° S 21:28:21 10° ESE
STARLINK-1234 2.7 21:21:33 10° WSW 21:24:39 77° S 21:27:48 10° E
Cosmos 1674 Rocket 3.5 21:20:52 11° S 21:25:05 71° E 21:29:29 10° NNE
Cosmos 2082 Rocket 2.6 21:19:35 10° NW 21:25:15 60° WSW 21:30:10 14° SSE
STARLINK-1110 4.0 21:21:55 10° W 21:25:54 46° SSW 21:28:57 16° SE
STARLINK-1212 2.7 21:22:50 10° WSW 21:25:56 70° SSE 21:29:01 10° E
Terra 1.9 21:21:43 13° S 21:26:02 77° WSW 21:30:50 10° NNW
Cosmos 2056 Rocket 4.3 21:21:11 10° SW 21:26:11 54° WNW 21:31:15 10° NNE
STARLINK-1105 2.7 21:23:17 10° WSW 21:26:23 70° SSE 21:29:28 10° E
STARLINK-1247 2.7 21:24:11 10° WSW 21:27:18 71° SSE 21:30:25 10° E
STARLINK-1227 2.7 21:24:39 10° WSW 21:27:44 71° SSE 21:30:50 10° E
STARLINK-1226 2.7 21:25:32 10° WSW 21:28:38 71° SSE 21:31:45 10° E
Lacrosse 5 2.4 21:23:57 10° WNW 21:28:46 45° SW 21:32:31 16° SSE
STARLINK-1233 3.7 21:24:45 10° SW 21:28:49 56° SSE 21:32:53 10° E
STARLINK-1112 3.5 21:25:02 10° W 21:29:11 80° SSW 21:33:20 10° ESE
STARLINK-1215 2.7 21:26:26 10° WSW 21:29:33 72° SSE 21:32:40 10° E
Resurs 01 Rocket 4.3 21:27:41 10° WSW 21:29:56 14° W 21:32:11 10° NW
STARLINK-1209 2.8 21:26:47 10° WSW 21:29:57 80° S 21:33:09 10° E
STARLINK-1217 2.7 21:28:14 10° WSW 21:31:20 73° SSE 21:34:27 10° E
Cosmos 1833 Rocket 3.8 21:26:27 10° NW 21:31:33 36° WSW 21:36:37 10° S
STARLINK-1124 4.1 21:27:44 10° W 21:31:41 43° SSW 21:34:32 17° SE
Cosmos 1378 Rocket 3.6 21:28:00 13° S 21:31:54 64° E 21:36:17 10° NNE
Abrixas rocket 2.7 21:29:22 10° WSW 21:32:03 31° S 21:33:32 19° SE
STARLINK-1229 2.7 21:29:07 10° WSW 21:32:14 73° SSE 21:35:21 10° E
STARLINK-1270 2.7 21:30:01 10° WSW 21:33:07 74° SSE 21:36:14 10° E
STARLINK-1204 3.6 21:29:43 10° WSW 21:33:48 58° SSE 21:37:53 10° E
STARLINK-1128 3.5 21:30:01 10° W 21:34:10 78° SSW 21:38:19 10° ESE
STARLINK-1228 2.9 21:30:55 10° W 21:34:17 82° S 21:37:39 10° E
STARLINK-1189 2.7 21:31:49 10° WSW 21:34:56 74° SSE 21:38:03 10° E
STARLINK-1188 2.7 21:32:43 10° WSW 21:35:51 75° SSE 21:38:59 10° E
STARLINK-1235 2.7 21:33:23 10° WSW 21:36:29 80° S 21:39:35 10° E
STARLINK-1122 4.2 21:32:44 10° W 21:36:39 41° SSW 21:39:20 18° SSE
STARLINK-1187 2.7 21:33:49 10° WSW 21:36:55 78° S 21:40:01 10° E
STARLINK-1191 2.7 21:35:12 10° WSW 21:38:17 76° S 21:41:23 10° E
STARLINK-67 1.4 21:36:25 10° W 21:38:19 74° S 21:39:02 32° ESE
STARLINK-1238 3.6 21:34:40 10° WSW 21:38:45 61° SSE 21:42:51 10° E
STARLINK-1113 3.5 21:34:58 10° W 21:39:08 76° SSW 21:43:16 10° ESE
STARLINK-1221 2.7 21:36:03 10° WSW 21:39:09 76° SSE 21:42:15 10° E
Cosmos 1805 3.3 21:35:50 10° N 21:39:46 69° ENE 21:42:30 19° SSE
STARLINK-1222 2.7 21:36:58 10° WSW 21:40:04 77° SSE 21:43:11 10° E
NOSS 3 (A) 4.4 21:38:08 10° SW 21:40:52 90° SSE 21:44:07 10° NE
STARLINK-1214 2.7 21:37:51 10° WSW 21:40:57 77° S 21:44:03 10° E
STARLINK-1239 4.5 21:37:51 10° SSW 21:41:24 28° SE 21:44:58 10° E
STARLINK-1126 4.3 21:37:39 10° W 21:41:31 39° SSW 21:44:02 19° SSE
MTI 3.6 21:39:09 10° NNE 21:42:18 78° E 21:44:37 17° S
Nadezhda 4 Rocket 4.0 21:37:08 11° S 21:43:03 78° E 21:49:12 10° NNE
Cosmos 1975 Rocket 4.0 21:40:41 17° SE 21:43:27 33° E 21:47:27 10° NNE
STARLINK-1201 3.6 21:39:37 10° WSW 21:43:43 63° SSE 21:47:50 10° E
Cosmos 1378 3.5 21:41:31 19° SSE 21:43:54 48° E 21:47:31 10° NNE
STARLINK-1119 3.5 21:39:58 10° W 21:44:06 74° SSW 21:48:15 10° ESE
Cosmos 2369 Rocket 3.8 21:41:45 13° SE 21:44:20 18° E 21:47:57 10° ENE
Cosmos 371 Rocket 3.3 21:40:19 10° SSW 21:45:11 87° WNW 21:50:06 10° NNE
STARLINK-1240 4.4 21:42:43 10° SSW 21:46:21 30° SE 21:49:58 10° E
STARLINK-1082 4.3 21:42:43 10° W 21:46:33 37° SSW 21:48:53 20° SSE
STARLINK-1206 3.5 21:44:35 10° WSW 21:48:41 66° SSE 21:52:49 10° E
STARLINK-1114 3.5 21:44:56 10° W 21:49:05 72° SSW 21:53:09 10° ESE
Cosmos 1066 Rocket 4.1 21:44:45 12° S 21:49:53 83° E 21:55:17 10° NNE
Cosmos 1943 Rocket 3.3 21:48:17 17° SE 21:51:12 25° ESE 21:55:42 10° NE
STARLINK-1216 4.3 21:47:36 10° SSW 21:51:17 31° SSE 21:54:58 10° E
STARLINK-1100 4.4 21:47:42 10° W 21:51:30 35° SSW 21:53:40 20° SSE
Thor Agena Rocket 4.1 21:47:36 10° NNE 21:52:43 45° E 21:56:22 18° SSE
STARLINK-1205 3.5 21:49:32 10° WSW 21:53:40 68° SSE 21:57:48 10° E
STARLINK-1130 (DARKSAT) 3.5 21:49:54 10° W 21:54:03 70° SSW 21:57:55 11° ESE
Aureole 3 Rocket 4.4 21:50:59 10° N 21:55:52 49° ENE 22:01:07 16° SE
STARLINK-1237 4.2 21:52:30 10° SSW 21:56:14 33° SSE 21:59:58 10° E
STARLINK-1083 4.5 21:52:42 10° W 21:56:27 33° SSW 21:58:26 21° SSE
Cosmos 1842 4.2 21:54:32 20° SE 21:56:36 34° E 22:00:10 10° NNE
Cosmos 1452 Rocket 3.7 21:51:42 10° SSW 21:56:59 74° WNW 22:02:18 10° NNE
Okean 2 3.9 21:55:05 20° SSE 21:57:35 46° E 22:01:35 10° NNE
STARLINK-1218 3.5 21:54:30 10° WSW 21:58:37 70° SSE 22:02:45 10° E
STARLINK-1084 3.6 21:54:53 10° W 21:59:01 68° SSW 22:02:42 13° ESE
SL-27 R/B 3.5 21:56:59 10° NNW 22:00:25 39° ENE 22:02:48 17° ESE
Cosmos 1900 4.4 21:55:52 10° NW 22:00:54 81° NE 22:04:52 17° SE
STARLINK-1202 4.2 21:57:25 10° SW 22:01:11 35° SSE 22:04:59 10° E
Okean 1 Rocket 3.8 21:56:54 10° NNW 22:01:14 49° W 22:04:43 15° SSW
Cosmos 2278 Rocket 2.9 21:56:56 10° SW 22:02:31 56° NW 22:08:09 10° NNE
STARLINK-1254 3.5 21:59:28 10° WSW 22:03:36 73° SSE 22:07:44 10° E
STARLINK-1098 3.6 21:59:53 10° W 22:04:01 65° SSW 22:07:30 14° ESE
SL-4 R/B 3.7 22:02:42 10° WNW 22:04:26 14° WSW 22:05:51 11° SW
SPOT 5 4.5 22:01:09 10° SSW 22:05:42 31° W 22:10:25 10° NNW
USA 215 3.3 22:00:55 14° SE 22:06:43 65° SSW 22:13:15 10° WNW
Cosmos 1437 Rocket 3.7 22:03:12 10° SW 22:06:49 43° WNW 22:10:29 10° N
STARLINK-1231 3.5 22:04:27 10° WSW 22:08:36 75° SSE 22:12:44 10° E
STARLINK-1123 3.6 22:04:52 10° W 22:08:58 63° SSW 22:12:17 15° ESE
STARLINK-1246 4.0 22:07:12 10° SW 22:11:04 39° SSE 22:14:57 10° E
Cosmos 1726 4.1 22:08:35 10° NNE 22:11:22 20° ENE 22:13:48 12° ESE
Cosmos 1455 Rocket 3.1 22:08:47 10° N 22:13:11 75° ENE 22:15:52 23° SSE
STARLINK-1232 3.5 22:09:25 10° WSW 22:13:34 77° SSE 22:17:42 10° E
NOSS 2-2 (D) 4.1 22:12:35 24° SSE 22:13:44 30° ESE 22:17:16 10° ENE
STARLINK-1097 3.6 22:09:49 10° W 22:13:55 61° SSW 22:17:02 17° ESE
NOSS 3-2 (C) 4.1 22:07:12 10° NW 22:14:26 77° NE 22:22:42 10° SE
STARLINK-1224 4.0 22:12:09 10° SW 22:16:03 41° SSE 22:19:58 10° E
STARLINK-1208 3.5 22:14:23 10° WSW 22:18:32 79° SSE 22:22:41 10° E
STARLINK-1099 3.7 22:14:48 10° W 22:18:54 58° SSW 22:21:49 18° SE
STARLINK-1225 3.9 22:17:03 10° SW 22:21:00 43° SSE 22:24:57 10° E
Cosmos 1092 Rocket 4.0 22:17:01 16° S 22:22:08 88° WNW 22:28:19 10° N
STARLINK-1271 3.5 22:19:22 10° WSW 22:23:30 80° S 22:27:40 10° E
STARLINK-1104 3.7 22:19:47 10° W 22:23:51 56° SSW 22:26:36 19° SE
Cosmos 1025 Rocket 4.2 22:21:46 20° SE 22:23:52 30° E 22:27:37 10° NNE
ERBS 2.1 22:21:07 10° WSW 22:24:26 87° SSE 22:27:47 10° ENE
BREEZE-M DEB (TANK) 3.6 22:14:26 10° WSW 22:25:52 49° S 22:29:22 10° E
Aureole 2 Rocket 2.2 22:23:49 20° SSW 22:25:52 75° WNW 22:28:56 10° NNE
STARLINK-1230 3.8 22:22:00 10° SW 22:25:57 45° SSE 22:29:57 10° E
Cosmos 1766 4.0 22:22:46 10° NNW 22:26:35 45° W 22:29:02 20° SSW
ATLAS 3B R/B 3.4 22:21:26 10° NW 22:27:59 52° NNE 22:34:44 10° ESE
STARLINK-1154 3.5 22:24:21 10° WSW 22:28:30 82° S 22:32:40 10° E
STARLINK-1144 3.7 22:24:46 10° W 22:28:49 53° SSW 22:31:23 21° SE
STARLINK-1243 3.8 22:26:56 10° SW 22:30:55 48° SSE 22:34:55 10° E
CENTAUR R/B 3.2 22:23:09 10° NW 22:30:56 81° NE 22:39:40 10° SE
SL-4 R/B 0.5 22:30:57 57° SE 22:31:16 72° ENE 22:33:29 10° N
Cosmos 304 Rocket 4.0 22:26:45 10° SSW 22:31:29 71° WNW 22:36:17 10° NNE
NOSS 2-2 (E) 3.4 22:30:16 23° SSW 22:32:17 51° SE 22:36:26 10° NE
STARLINK-1197 3.5 22:29:19 10° WSW 22:33:28 83° S 22:37:38 10° E
Meteor 2-13 Rocket 4.5 22:29:17 19° S 22:33:46 76° E 22:39:57 10° NNE
STARLINK-1103 3.8 22:29:45 10° W 22:33:47 51° SSW 22:36:10 22° SE
Cosmos 1271 Rocket 3.6 22:33:25 24° SE 22:35:03 35° E 22:38:39 10° NNE
STARLINK-1236 3.7 22:31:52 10° SW 22:35:53 50° SSE 22:39:54 10° E
Cosmos 1953 3.2 22:32:53 10° N 22:36:42 39° ENE 22:39:00 20° SE
Cosmos 1340 Rocket 4.1 22:33:06 10° N 22:36:47 33° ENE 22:39:21 17° SE
STARLINK-1198 3.5 22:34:17 10° W 22:38:26 85° S 22:42:36 10° E
STARLINK-1101 3.9 22:34:43 10° W 22:38:44 48° SSW 22:40:56 24° SE
Cosmos 1733 4.1 22:36:15 10° NNW 22:39:51 40° W 22:41:59 21° SSW
SeaSat 1 2.4 22:35:11 10° NNE 22:40:10 87° WNW 22:44:45 12° SW
NOSS 8 (E) 4.3 22:37:22 10° SW 22:40:27 75° NW 22:43:35 10° NE
ALOS 2 2.6 22:40:11 25° SSE 22:42:46 82° ENE 22:47:11 10° NNW
Cosmos 1707 3.5 22:41:13 25° SE 22:42:56 39° E 22:46:36 10° NNE
Cosmos 1536 Rocket 4.3 22:40:52 23° SSE 22:43:01 40° E 22:47:05 10° NNE
Cosmos 1242 Rocket 2.7 22:41:38 29° SSE 22:43:14 58° E 22:46:53 10° NNE
STARLINK-1199 3.5 22:39:16 10° W 22:43:25 86° S 22:47:35 10° E
SL-8 R/B 4.2 22:39:04 10° W 22:43:32 39° SSW 22:46:22 20° SE
STARLINK-1102 3.9 22:39:43 10° W 22:43:42 46° SSW 22:45:43 25° SSE
Meteor 2-10 4.2 22:39:37 10° N 22:44:41 60° ENE 22:47:58 21° SSE
Cosmos 1503 Rocket 4.3 22:40:09 10° NNW 22:45:25 64° ENE 22:49:21 18° SE
STARLINK-1269 3.6 22:41:44 10° SW 22:45:47 55° SSE 22:49:51 10° E
Cosmos 1758 3.3 22:42:03 10° N 22:46:07 87° E 22:48:13 28° SSE
BREEZE M DEB (TANK) 4.1 22:44:17 10° WSW 22:45:07 15° SW 22:45:07 15° SW
Aureole 3 4.4 22:44:03 10° N 22:47:32 31° ENE 22:49:22 18° ESE
STARLINK-1210 3.5 22:44:16 10° W 22:48:25 87° S 22:52:35 10° E
STARLINK-1111 4.0 22:44:43 10° W 22:48:40 44° SSW 22:50:31 26° SSE
ISS -1.3 22:47:24 10° WSW 22:48:01 11° SW 22:48:01 11° SW
Cosmos 1544 Rocket 3.6 22:44:46 10° NNW 22:49:05 69° W 22:51:28 26° S
S3M 4.0 22:43:09 10° N 22:49:19 77° E 22:53:32 22° SSE
STARLINK-1200 3.6 22:46:42 10° WSW 22:50:47 58° SSE 22:54:51 10° E
Cosmos 1110 Rocket 4.3 22:46:21 11° SW 22:51:20 65° WNW 22:56:31 10° NNE
Cosmos 1461 2.9 22:47:43 12° SW 22:51:35 88° NW 22:56:03 10° NE
STARLINK-1219 3.5 22:49:13 10° W 22:53:23 88° S 22:57:33 10° E
STARLINK-1073 4.0 22:49:43 10° W 22:53:38 41° SSW 22:55:18 27° SSE
Cosmos 968 Rocket 3.4 22:49:25 10° NNW 22:54:37 87° WSW 22:57:52 23° SSE
NOSS 2-2 (C) 3.2 22:53:12 23° SSW 22:55:18 65° SE 22:59:30 10° NE
Cosmos 1655 Rocket 4.2 22:51:31 22° SSE 22:55:36 61° E 23:01:45 10° NNE
STARLINK-1192 3.6 22:51:40 10° WSW 22:55:45 60° SSE 22:59:50 10° E
ATLAS 2AS CENTAUR R/B 3.8 22:51:57 20° SSE 22:56:22 34° ESE 23:03:17 10° NE
STARLINK-1211 3.5 22:54:11 10° W 22:58:21 88° S 23:02:30 10° E
STARLINK-1121 4.1 22:54:40 10° W 22:58:34 39° SSW 23:00:03 28° SSE
Cosmos 1867 3.8 22:53:56 10° NW 22:59:25 71° NE 23:04:39 11° SE
Cosmos 2297 4.1 22:54:07 10° SW 22:59:46 63° NW 23:05:29 10° NNE
NOSS 3-2 (A) 4.2 22:52:37 10° NW 22:59:50 58° SW 23:05:46 20° SSE
STARLINK-1234 2.7 22:57:22 10° W 23:00:31 80° S 23:03:39 10° ESE
STARLINK-1244 3.5 22:56:36 10° WSW 23:00:42 62° SSE 23:04:48 10° E
Cosmos 1354 Rocket 4.1 22:55:39 10° NNW 23:00:58 74° ENE 23:04:42 20° SE
STARLINK-1212 2.7 22:58:36 10° W 23:01:43 84° S 23:04:50 10° E
STARLINK-1105 2.7 22:59:04 10° W 23:02:11 84° S 23:05:17 10° E
Cosmos 1674 4.5 23:00:43 16° ESE 23:02:19 21° E 23:05:11 10° NE
STARLINK-1247 2.7 22:59:58 10° W 23:03:05 84° S 23:06:13 10° E
STARLINK-1245 3.5 22:59:11 10° W 23:03:21 89° S 23:07:30 10° E
STARLINK-1106 4.2 22:59:41 10° W 23:03:32 37° SSW 23:04:51 29° S
STARLINK-1227 2.7 23:00:26 10° W 23:03:32 84° S 23:06:39 10° E
STARLINK-1226 2.7 23:01:18 10° W 23:04:26 83° S 23:07:33 10° E
Terra 4.2 23:02:36 10° WSW 23:04:37 12° W 23:06:38 10° WNW
Cosmos 292 Rocket 4.0 23:02:16 25° S 23:04:53 57° ESE 23:09:39 10° NNE
STARLINK-1215 2.7 23:02:13 10° W 23:05:21 83° S 23:08:29 10° E
STARLINK-1138 3.5 23:01:33 10° WSW 23:05:39 65° SSE 23:09:46 10° E
STARLINK-1209 2.7 23:02:54 10° W 23:06:04 76° SSW 23:09:16 10° ESE
SL-4 R/B 4.3 23:06:52 14° SE 23:06:52 14° SE 23:08:56 10° ESE
Cosmos 1553 Rocket 4.2 23:00:04 10° NNW 23:06:22 66° W 23:10:34 22° S
STARLINK-1217 2.7 23:04:00 10° W 23:07:08 82° S 23:10:16 10° E
USA 238 DEB 4.1 23:00:51 10° NW 23:07:45 52° SW 23:12:35 21° S
USA 238 4.1 23:00:56 10° NW 23:07:51 52° SW 23:12:42 21° S
STARLINK-1229 2.7 23:04:54 10° W 23:08:02 82° S 23:11:09 10° E
Cosmos 2082 Rocket 4.4 23:06:13 10° WNW 23:08:09 12° W 23:10:05 10° WSW
Cosmos 1486 Rocket 4.3 23:02:56 10° NNW 23:08:10 58° WSW 23:11:12 24° S
STARLINK-1233 3.5 23:04:09 10° W 23:08:20 89° SSE 23:12:29 10° E
STARLINK-1112 4.3 23:04:42 10° W 23:08:30 35° SSW 23:09:39 29° S
STARLINK-1270 2.7 23:05:47 10° W 23:08:55 82° S 23:12:04 10° E
Cosmos 1470 3.3 23:05:11 10° NNW 23:08:57 47° W 23:10:45 26° SSW
STARLINK-1143 3.5 23:06:31 10° WSW 23:10:38 67° SSE 23:14:46 10° E
Lacrosse 5 4.0 23:09:20 10° WSW 23:10:39 11° WSW 23:11:42 10° SW
STARLINK-1189 2.7 23:07:36 10° W 23:10:44 81° S 23:13:52 10° ESE
EO 1 Del DPAF 4.5 23:07:28 10° N 23:10:59 36° WNW 23:13:46 14° SW
STARLINK-1228 2.9 23:07:41 10° W 23:11:03 75° S 23:14:23 10° ESE
STARLINK-1203 3.5 23:07:07 10° WSW 23:11:18 68° SSE 23:15:29 10° E
STARLINK-1188 2.7 23:08:31 10° W 23:11:39 81° S 23:14:47 10° ESE
Cosmos 2292 Rocket 3.9 23:10:01 26° SSE 23:12:00 45° E 23:15:22 10° NNE
STARLINK-1235 2.7 23:09:11 10° W 23:12:18 76° S 23:15:23 10° ESE
STARLINK-1187 2.7 23:09:38 10° W 23:12:43 78° S 23:15:49 10° ESE
STARLINK-1204 3.5 23:09:09 10° W 23:13:19 89° SSE 23:17:28 10° E
STARLINK-1128 4.3 23:09:42 10° W 23:13:27 33° SSW 23:14:26 29° S
STARLINK-1191 2.7 23:10:59 10° W 23:14:06 80° S 23:17:12 10° ESE
STARLINK-1221 2.7 23:11:51 10° W 23:14:57 80° S 23:18:04 10° ESE
STARLINK-1241 3.5 23:11:29 10° WSW 23:15:37 70° SSE 23:19:44 10° E
Cosmos 1606 Rocket 4.3 23:11:28 10° N 23:15:39 44° ENE 23:18:23 19° SE
STARLINK-1222 2.7 23:12:46 10° W 23:15:52 79° S 23:18:59 10° ESE
STARLINK-1214 2.7 23:13:39 10° W 23:16:45 79° SSW 23:19:51 10° ESE
STARLINK-1238 3.5 23:14:07 10° W 23:18:18 89° S 23:22:28 10° E
STARLINK-1113 4.4 23:14:41 10° W 23:18:23 32° SSW 23:19:12 29° S
Cosmos 1302 Rocket 4.1 23:15:08 18° SSW 23:19:11 76° WNW 23:24:32 10° NNE
STARLINK-1239 3.5 23:16:28 10° WSW 23:20:35 72° SSE 23:24:44 10° E
Cosmos 1975 Rocket 4.4 23:17:49 13° SW 23:21:18 34° WNW 23:25:22 10° N
Cosmos 2227 Rocket 4.3 23:17:59 10° NNW 23:22:43 26° NE 23:27:25 10° E
STARLINK-1201 3.5 23:19:06 10° W 23:23:16 89° S 23:27:26 10° E
STARLINK-1119 4.5 23:19:41 10° W 23:23:20 30° SW 23:23:59 28° SSW
ATLAS CENTAUR R/B 3.3 23:23:07 16° SE 23:23:59 17° ESE 23:26:41 10° ENE
Cosmos 1908 3.7 23:20:58 10° N 23:24:44 52° ENE 23:26:46 24° SE
YAOGAN 11 4.0 23:22:51 27° SSE 23:25:14 83° WSW 23:29:37 10° NNW
STARLINK-1240 3.5 23:21:25 10° WSW 23:25:34 74° SSE 23:29:42 10° E
Cosmos 2369 Rocket 2.2 23:23:31 20° SSW 23:27:33 84° ESE 23:33:15 10° NNE
STARLINK-1206 3.5 23:24:05 10° W 23:28:15 88° S 23:32:25 10° E
STARLINK-1216 3.5 23:26:23 10° WSW 23:30:31 76° SSE 23:34:40 10° E
STARLINK-1205 3.5 23:29:04 10° W 23:33:14 88° S 23:37:24 10° E
Cosmos 1943 Rocket 2.4 23:29:46 15° SW 23:34:28 70° NW 23:40:06 10° NNE
SL-27 R/B 4.1 23:32:29 10° NW 23:35:20 22° WSW 23:36:21 19° SW
STARLINK-1237 3.5 23:31:21 10° WSW 23:35:31 78° SSE 23:39:39 10° E
ATLAS CENTAUR R/B 1.7 23:33:56 10° WNW 23:35:51 46° NNE 23:38:54 10° E
STARLINK-1218 3.5 23:34:01 10° W 23:38:11 87° S 23:42:21 10° E
PSLV R/B 4.4 23:36:01 10° NNE 23:40:27 43° E 23:42:52 23° SSE
STARLINK-1202 3.5 23:36:21 10° WSW 23:40:30 80° SSE 23:44:39 10° E
Timation 2 Rocket 4.3 23:35:05 10° NNW 23:41:33 66° NE 23:47:41 10° SE
KORONAS-FOTON 4.3 23:41:15 27° SSE 23:42:59 49° E 23:46:42 10° NNE
RESURS DK-1 4.5 23:41:34 12° SE 23:43:06 15° ESE 23:45:23 10° ENE
STARLINK-1254 3.5 23:39:00 10° W 23:43:10 86° S 23:47:20 10° E
BREEZE-M DEB 4.2 23:39:13 10° WSW 23:43:13 66° SSE 23:58:39 10° E
Cosmos 2266 Rocket 3.9 23:40:01 23° S 23:44:05 87° W 23:50:12 10° N
Helios 1A 3.6 23:43:07 26° SSW 23:45:04 43° W 23:49:05 10° NNW
Landsat 4 3.6 23:42:19 10° NNE 23:46:03 84° WNW 23:47:49 30° SSW
Cosmos 1726 2.8 23:43:16 10° NNW 23:46:48 43° W 23:48:18 28° SSW
GEOS 3 Rocket 3.6 23:42:35 10° SE 23:47:48 87° SW 23:53:10 10° NW
COSMOS 2487 2.3 23:44:41 10° NNW 23:48:10 71° WSW 23:49:33 33° S
STARLINK-1231 3.5 23:44:01 10° W 23:48:11 85° S 23:52:20 10° E
SL-16 R/B 3.8 23:44:17 10° ESE 23:49:49 36° ENE 23:55:23 10° N
Cosmos 1992 Rocket 4.0 23:46:54 23° SSW 23:50:13 86° ESE 23:55:27 10° NNE
STARLINK-1246 3.5 23:46:16 10° WSW 23:50:26 83° S 23:54:36 10° E
USA 215 4.4 23:48:14 20° SSW 23:50:36 24° SW 23:55:47 10° WNW
Meteor 2-5 Rocket 4.3 23:47:20 20° SSE 23:50:52 48° E 23:56:14 10° NNE
CZ-4 R/B 4.1 23:46:33 10° NNE 23:51:21 60° ESE 23:54:05 25° S
NOSS 5 (C) 4.2 23:49:24 10° NW 23:52:28 86° SW 23:55:03 18° SE
STARLINK-1232 3.5 23:48:59 10° W 23:53:09 84° S 23:57:18 10° E
STARLINK-1224 3.5 23:51:16 10° W 23:55:26 84° S 23:59:36 10° E
Helios 1B rocket 2.7 23:51:27 10° NNE 23:55:33 58° ESE 23:57:40 26° S
